WXM80 ListenWXM80 Stop

You find our weather info also at:

UK Metoffice

WeatherCloud

Weather Underground

Northeastern Weather Network

AWEKAS

Citizen Weather Observer Program (CWOP)

HAMweather, WeatherForYou, PWS Weather


Weather Underground History page Text

Daily Summary for November 13, 2017 Units:  English    Metric   Both
« Previous Day
Next Day »
Daily Weekly Monthly Yearly Custom
  High: Low: Average:
Temperature: 46.9 °F 37.1 °F 44 °F
Dew Point: 42.2 °F 32.7 °F 39 °F
Humidity: 87 % 76 % 82 %
Wind Speed: 10.4 mph 0.0 mph 3.7 mph
Wind Gust: 14.0 mph - -
Wind:- - ENE
Pressure: 30.38 in 30.24 in -
Precipitation: 0.00 in    
Historical Graphs
 
 
Tabular Data for November 13, 2017
Time Temperature Dew Point Pressure Wind Wind Speed Wind Gust Humidity Rainfall Rate (Hourly)
00:01 37.1 °F 33.0 °F 30.38 in Calm     85 % 0.00 in
00:06 37.1 °F 32.7 °F 30.38 in Calm   1.2 mph 84 % 0.00 in
00:10 37.1 °F 32.7 °F 30.37 in Calm     84 % 0.00 in
00:15 37.1 °F 32.7 °F 30.36 in Calm     84 % 0.00 in
00:20 37.2 °F 32.8 °F 30.37 in Calm     84 % 0.00 in
00:25 37.3 °F 32.9 °F 30.37 in Calm     84 % 0.00 in
00:30 37.3 °F 32.9 °F 30.37 in Calm     84 % 0.00 in
00:35 37.3 °F 32.9 °F 30.36 in Calm     84 % 0.00 in
00:40 37.4 °F 33.0 °F 30.36 in Calm     84 % 0.00 in
00:45 37.4 °F 33.0 °F 30.36 in Calm     84 % 0.00 in
00:50 37.5 °F 33.1 °F 30.36 in Calm     84 % 0.00 in
00:55 37.6 °F 33.2 °F 30.36 in Calm     84 % 0.00 in
01:00 37.7 °F 33.3 °F 30.36 in Calm     84 % 0.00 in
01:05 37.7 °F 33.3 °F 30.35 in Calm     84 % 0.00 in
01:10 37.7 °F 33.3 °F 30.35 in Calm     84 % 0.00 in
01:15 37.8 °F 33.4 °F 30.34 in Calm   1.2 mph 84 % 0.00 in
01:20 37.8 °F 33.4 °F 30.35 in Calm     84 % 0.00 in
01:25 37.9 °F 33.5 °F 30.34 in Calm     84 % 0.00 in
01:30 38.0 °F 33.6 °F 30.35 in Calm   1.2 mph 84 % 0.00 in
01:35 38.1 °F 33.7 °F 30.35 in SW 0.1 mph   84 % 0.00 in
01:41 38.2 °F 33.8 °F 30.35 in Calm     84 % 0.00 in
01:46 38.3 °F 33.9 °F 30.34 in Calm     84 % 0.00 in
01:51 38.4 °F 34.0 °F 30.34 in Calm     84 % 0.00 in
01:56 38.5 °F 34.4 °F 30.35 in Calm     85 % 0.00 in
02:01 38.6 °F 34.5 °F 30.35 in Calm     85 % 0.00 in
02:06 38.7 °F 34.6 °F 30.34 in Calm   1.0 mph 85 % 0.00 in
02:11 38.8 °F 34.7 °F 30.34 in Calm   1.0 mph 85 % 0.00 in
02:16 38.9 °F 35.1 °F 30.34 in Calm   1.0 mph 86 % 0.00 in
02:21 38.9 °F 35.1 °F 30.34 in Calm   2.0 mph 86 % 0.00 in
02:26 39.0 °F 35.2 °F 30.34 in ENE 1.0 mph 3.5 mph 86 % 0.00 in
02:31 39.2 °F 35.4 °F 30.33 in ENE 2.0 mph 4.0 mph 86 % 0.00 in
02:36 39.5 °F 35.9 °F 30.33 in ENE 2.0 mph 5.0 mph 87 % 0.00 in
02:41 39.8 °F 36.0 °F 30.34 in Calm   4.0 mph 86 % 0.00 in
02:46 40.0 °F 36.2 °F 30.33 in Calm     86 % 0.00 in
02:51 40.2 °F 36.3 °F 30.34 in Calm     86 % 0.00 in
02:56 40.5 °F 36.3 °F 30.34 in ENE 1.1 mph 2.0 mph 85 % 0.00 in
03:01 40.8 °F 36.6 °F 30.34 in ENE 2.3 mph 3.5 mph 85 % 0.00 in
03:06 41.1 °F 36.6 °F 30.33 in ENE 2.0 mph 5.0 mph 84 % 0.00 in
03:11 41.5 °F 36.7 °F 30.33 in ENE 3.0 mph 7.0 mph 83 % 0.00 in
03:16 42.0 °F 36.9 °F 30.33 in ENE 1.0 mph 4.0 mph 82 % 0.00 in
03:21 42.4 °F 37.3 °F 30.32 in ENE 6.0 mph 9.0 mph 82 % 0.00 in
03:26 43.0 °F 37.5 °F 30.32 in ENE 5.0 mph 8.0 mph 81 % 0.00 in
03:31 43.4 °F 37.4 °F 30.32 in ENE 5.0 mph 6.0 mph 79 % 0.00 in
03:36 43.8 °F 37.4 °F 30.33 in ENE 3.0 mph 7.0 mph 78 % 0.00 in
03:41 44.1 °F 37.7 °F 30.33 in ENE 3.0 mph 8.0 mph 78 % 0.00 in
03:46 44.3 °F 37.5 °F 30.33 in ENE 2.0 mph 8.0 mph 77 % 0.00 in
03:51 44.3 °F 37.6 °F 30.33 in ENE 3.0 mph 6.0 mph 77 % 0.00 in
03:56 44.5 °F 37.4 °F 30.33 in ENE 3.0 mph 7.0 mph 76 % 0.00 in
04:01 44.6 °F 37.5 °F 30.33 in ENE 3.9 mph 5.0 mph 76 % 0.00 in
04:06 44.7 °F 37.6 °F 30.33 in ENE 2.0 mph 9.0 mph 76 % 0.00 in
04:11 44.8 °F 37.7 °F 30.32 in ENE 2.0 mph 5.0 mph 76 % 0.00 in
04:16 44.9 °F 37.8 °F 30.32 in ENE 3.0 mph 8.0 mph 76 % 0.00 in
04:21 45.0 °F 37.9 °F 30.32 in ENE 3.0 mph 8.0 mph 76 % 0.00 in
04:26 45.1 °F 38.0 °F 30.33 in ENE 3.0 mph 8.0 mph 76 % 0.00 in
04:31 45.2 °F 38.1 °F 30.33 in ENE 1.0 mph 8.0 mph 76 % 0.00 in
04:36 45.2 °F 38.1 °F 30.32 in ENE 5.0 mph 9.0 mph 76 % 0.00 in
04:41 45.3 °F 38.2 °F 30.31 in ENE 6.0 mph 10.0 mph 76 % 0.00 in
04:46 45.3 °F 38.2 °F 30.33 in ENE 2.0 mph 9.0 mph 76 % 0.00 in
04:51 45.4 °F 38.6 °F 30.33 in ENE 5.0 mph 7.0 mph 77 % 0.00 in
04:56 45.4 °F 38.6 °F 30.33 in ENE 2.0 mph 4.0 mph 77 % 0.00 in
05:01 45.5 °F 38.7 °F 30.33 in ENE 0.5 mph 4.6 mph 77 % 0.00 in
05:06 45.5 °F 39.0 °F 30.34 in ENE 1.0 mph 4.6 mph 78 % 0.00 in
05:11 45.5 °F 39.0 °F 30.34 in ENE 3.5 mph 8.1 mph 78 % 0.00 in
05:16 45.5 °F 39.0 °F 30.34 in ENE 1.1 mph 2.3 mph 78 % 0.00 in
05:21 45.6 °F 39.5 °F 30.34 in East 0.9 mph 2.3 mph 79 % 0.00 in
05:26 45.6 °F 39.1 °F 30.34 in ENE 4.0 mph 5.0 mph 78 % 0.00 in
05:31 45.6 °F 39.1 °F 30.34 in ENE 3.1 mph 5.8 mph 78 % 0.00 in
05:36 45.7 °F 39.2 °F 30.33 in ENE 2.5 mph 5.0 mph 78 % 0.00 in
05:41 45.7 °F 39.6 °F 30.33 in ENE 2.1 mph 3.5 mph 79 % 0.00 in
05:46 45.7 °F 39.6 °F 30.33 in East 1.5 mph 3.5 mph 79 % 0.00 in
05:51 45.8 °F 40.0 °F 30.33 in ENE 1.2 mph 2.3 mph 80 % 0.00 in
05:56 45.8 °F 40.0 °F 30.32 in ENE 2.0 mph 5.0 mph 80 % 0.00 in
06:01 45.8 °F 40.0 °F 30.32 in ENE 1.9 mph 3.5 mph 80 % 0.00 in
06:06 45.8 °F 40.0 °F 30.31 in NE 3.0 mph 6.9 mph 80 % 0.00 in
06:11 45.9 °F 40.1 °F 30.31 in ENE 3.2 mph 6.9 mph 80 % 0.00 in
06:16 45.9 °F 40.4 °F 30.31 in ENE 3.6 mph 4.0 mph 81 % 0.00 in
06:21 45.9 °F 40.1 °F 30.31 in ENE 2.4 mph 8.1 mph 80 % 0.00 in
06:26 46.0 °F 40.2 °F 30.31 in ENE 5.7 mph 10.4 mph 80 % 0.00 in
06:31 46.0 °F 40.2 °F 30.30 in ENE 3.3 mph 6.9 mph 80 % 0.00 in
06:32 46.0 °F 40.2 °F 30.30 in ENE 4.4 mph 7.0 mph 80 % 0.00 in
06:37 46.1 °F 40.3 °F 30.30 in ENE 7.1 mph 9.0 mph 80 % 0.00 in
06:42 46.2 °F 40.4 °F 30.30 in ENE 3.7 mph 4.6 mph 80 % 0.00 in
06:47 46.3 °F 40.5 °F 30.30 in NE 5.8 mph 9.2 mph 80 % 0.00 in
06:52 46.4 °F 40.9 °F 30.30 in East 3.3 mph 5.8 mph 81 % 0.00 in
06:57 46.5 °F 40.7 °F 30.31 in East 5.5 mph 9.2 mph 80 % 0.00 in
07:02 46.5 °F 40.7 °F 30.31 in Calm   2.3 mph 80 % 0.00 in
07:07 46.5 °F 40.7 °F 30.32 in SSE 0.1 mph 1.0 mph 80 % 0.00 in
07:12 46.5 °F 40.7 °F 30.31 in ENE 3.6 mph 7.0 mph 80 % 0.00 in
07:17 46.5 °F 41.0 °F 30.31 in ENE 1.8 mph 8.1 mph 81 % 0.00 in
07:22 46.5 °F 41.0 °F 30.32 in Calm     81 % 0.00 in
07:27 46.5 °F 40.7 °F 30.32 in East 0.6 mph 5.0 mph 80 % 0.00 in
07:32 46.5 °F 41.0 °F 30.33 in East 0.1 mph 1.2 mph 81 % 0.00 in
07:37 46.5 °F 40.7 °F 30.33 in ESE 2.6 mph 8.1 mph 80 % 0.00 in
07:42 46.4 °F 40.2 °F 30.34 in NNE 2.3 mph 3.5 mph 79 % 0.00 in
07:47 46.3 °F 40.1 °F 30.34 in ENE 2.0 mph 4.0 mph 79 % 0.00 in
07:52 46.3 °F 40.5 °F 30.34 in ENE 2.6 mph 4.6 mph 80 % 0.00 in
07:57 46.4 °F 40.6 °F 30.34 in ENE 3.7 mph 4.0 mph 80 % 0.00 in
08:02 46.4 °F 40.6 °F 30.34 in ENE 2.6 mph 3.5 mph 80 % 0.00 in
08:07 46.4 °F 40.2 °F 30.33 in ENE 3.2 mph 4.6 mph 79 % 0.00 in
08:12 46.3 °F 40.1 °F 30.33 in ENE 1.6 mph 6.9 mph 79 % 0.00 in
08:17 46.3 °F 39.8 °F 30.33 in East 3.0 mph 7.0 mph 78 % 0.00 in
08:22 46.2 °F 39.7 °F 30.33 in ENE 4.5 mph 7.0 mph 78 % 0.00 in
08:28 46.1 °F 39.6 °F 30.33 in ENE 5.3 mph 10.4 mph 78 % 0.00 in
08:33 46.1 °F 39.6 °F 30.33 in East 3.7 mph 8.1 mph 78 % 0.00 in
08:38 46.0 °F 39.5 °F 30.33 in ENE 4.3 mph 7.0 mph 78 % 0.00 in
08:43 45.9 °F 39.4 °F 30.33 in ENE 4.1 mph 9.2 mph 78 % 0.00 in
08:48 45.8 °F 39.3 °F 30.33 in ENE 3.5 mph 9.2 mph 78 % 0.00 in
08:53 45.8 °F 39.7 °F 30.32 in ENE 6.5 mph 9.2 mph 79 % 0.00 in
08:58 45.8 °F 39.7 °F 30.32 in ENE 5.2 mph 11.5 mph 79 % 0.00 in
09:03 45.6 °F 39.5 °F 30.32 in ENE 4.6 mph 9.2 mph 79 % 0.00 in
09:08 45.6 °F 39.8 °F 30.32 in NE 3.0 mph 6.9 mph 80 % 0.00 in
09:13 45.5 °F 39.7 °F 30.32 in ENE 2.7 mph 3.5 mph 80 % 0.00 in
09:18 45.4 °F 39.9 °F 30.32 in NE 3.4 mph 4.6 mph 81 % 0.00 in
09:23 45.4 °F 40.2 °F 30.32 in NE 2.2 mph 6.9 mph 82 % 0.00 in
09:28 45.2 °F 39.7 °F 30.33 in ENE 4.2 mph 4.6 mph 81 % 0.00 in
09:33 45.1 °F 39.6 °F 30.33 in ENE 2.5 mph 3.5 mph 81 % 0.00 in
09:38 45.1 °F 39.6 °F 30.33 in ENE 4.9 mph 6.9 mph 81 % 0.00 in
09:43 45.1 °F 39.9 °F 30.32 in NE 1.7 mph 3.5 mph 82 % 0.00 in
09:48 45.1 °F 39.9 °F 30.33 in ENE 3.2 mph 4.6 mph 82 % 0.00 in
09:53 45.1 °F 39.9 °F 30.33 in ENE 3.1 mph 4.6 mph 82 % 0.00 in
09:59 45.1 °F 40.2 °F 30.33 in ENE 3.2 mph 4.0 mph 83 % 0.00 in
10:04 45.1 °F 40.2 °F 30.32 in ENE 4.2 mph 8.1 mph 83 % 0.00 in
10:09 45.2 °F 40.3 °F 30.33 in ENE 3.2 mph 9.2 mph 83 % 0.00 in
10:14 45.2 °F 40.3 °F 30.33 in NNE 1.4 mph 5.8 mph 83 % 0.00 in
10:19 45.3 °F 40.4 °F 30.33 in NE 3.6 mph 6.9 mph 83 % 0.00 in
10:24 45.3 °F 40.4 °F 30.32 in NE 2.6 mph 5.8 mph 83 % 0.00 in
10:29 45.4 °F 40.5 °F 30.32 in North 3.0 mph 4.6 mph 83 % 0.00 in
10:34 45.4 °F 40.5 °F 30.33 in NE 2.0 mph 4.6 mph 83 % 0.00 in
10:39 45.5 °F 40.9 °F 30.34 in NNE 1.4 mph 5.0 mph 84 % 0.00 in
10:44 45.6 °F 41.4 °F 30.33 in NNE 4.5 mph 6.9 mph 85 % 0.00 in
10:49 45.6 °F 41.4 °F 30.33 in NNE 1.1 mph 4.6 mph 85 % 0.00 in
10:50 45.6 °F 41.4 °F 30.32 in ENE 2.3 mph 3.5 mph 85 % 0.00 in
10:55 45.7 °F 41.4 °F 30.32 in North 2.2 mph 6.9 mph 85 % 0.00 in
11:00 45.8 °F 41.9 °F 30.33 in NNE 4.0 mph 5.8 mph 86 % 0.00 in
11:05 45.8 °F 41.9 °F 30.33 in East 4.7 mph 8.1 mph 86 % 0.00 in
11:10 45.8 °F 41.9 °F 30.32 in North 4.3 mph 5.8 mph 86 % 0.00 in
11:15 45.8 °F 41.9 °F 30.32 in NNE 2.7 mph 5.8 mph 86 % 0.00 in
11:20 45.8 °F 41.9 °F 30.31 in NNE 3.8 mph 5.0 mph 86 % 0.00 in
11:25 45.7 °F 41.8 °F 30.30 in NE 1.7 mph 4.6 mph 86 % 0.00 in
11:30 45.7 °F 41.8 °F 30.30 in NNE 4.0 mph 6.9 mph 86 % 0.00 in
11:35 45.7 °F 42.1 °F 30.30 in NNE 2.2 mph 4.6 mph 87 % 0.00 in
11:40 45.7 °F 41.8 °F 30.29 in NNE 0.7 mph 3.5 mph 86 % 0.00 in
11:46 45.8 °F 42.1 °F 30.28 in NNE 3.0 mph 8.0 mph 87 % 0.00 in
11:51 45.8 °F 42.2 °F 30.29 in NNE 3.0 mph 8.0 mph 87 % 0.00 in
11:56 45.9 °F 42.2 °F 30.28 in NE 2.4 mph 2.4 mph 87 % 0.00 in
12:01 46.0 °F 42.0 °F 30.28 in NNE 3.9 mph 8.1 mph 86 % 0.00 in
12:06 46.0 °F 42.0 °F 30.28 in North 3.6 mph 6.0 mph 86 % 0.00 in
12:11 46.0 °F 42.0 °F 30.28 in NE 1.6 mph 6.9 mph 86 % 0.00 in
12:16 46.1 °F 42.1 °F 30.27 in NNE 5.0 mph 8.0 mph 86 % 0.00 in
12:21 46.1 °F 41.8 °F 30.28 in NNE 6.0 mph 10.0 mph 85 % 0.00 in
12:26 46.1 °F 41.8 °F 30.27 in North 6.0 mph 10.0 mph 85 % 0.00 in
12:31 46.1 °F 41.8 °F 30.27 in NNE 6.0 mph 12.0 mph 85 % 0.00 in
12:36 46.1 °F 41.8 °F 30.27 in North 4.9 mph 10.4 mph 85 % 0.00 in
12:41 46.1 °F 41.8 °F 30.27 in NE 2.9 mph 9.2 mph 85 % 0.00 in
12:46 46.1 °F 41.8 °F 30.27 in NE 6.9 mph 8.1 mph 85 % 0.00 in
12:51 46.1 °F 41.8 °F 30.27 in NNE 6.6 mph 10.4 mph 85 % 0.00 in
12:56 46.2 °F 41.9 °F 30.26 in NNE 5.5 mph 10.4 mph 85 % 0.00 in
13:01 46.3 °F 42.0 °F 30.27 in NE 7.6 mph 11.5 mph 85 % 0.00 in
13:06 46.4 °F 41.8 °F 30.26 in NNE 5.9 mph 10.4 mph 84 % 0.00 in
13:11 46.4 °F 41.8 °F 30.27 in North 6.3 mph 11.0 mph 84 % 0.00 in
13:16 46.4 °F 41.8 °F 30.27 in NE 4.7 mph 10.4 mph 84 % 0.00 in
13:21 46.3 °F 41.7 °F 30.26 in NNE 6.6 mph 9.2 mph 84 % 0.00 in
13:26 46.3 °F 41.7 °F 30.26 in NNE 6.1 mph 7.0 mph 84 % 0.00 in
13:32 46.3 °F 41.7 °F 30.26 in North 5.3 mph 8.1 mph 84 % 0.00 in
13:37 46.3 °F 41.7 °F 30.26 in NNE 4.0 mph 6.9 mph 84 % 0.00 in
13:42 46.4 °F 41.5 °F 30.26 in North 3.8 mph 8.1 mph 83 % 0.00 in
13:47 46.5 °F 41.6 °F 30.26 in North 3.7 mph 8.1 mph 83 % 0.00 in
13:52 46.6 °F 41.4 °F 30.25 in NNE 3.7 mph 11.5 mph 82 % 0.00 in
13:57 46.7 °F 41.5 °F 30.26 in ENE 3.4 mph 7.0 mph 82 % 0.00 in
14:02 46.7 °F 41.2 °F 30.25 in NNE 6.2 mph 9.0 mph 81 % 0.00 in
14:07 46.7 °F 41.2 °F 30.26 in North 5.5 mph 10.4 mph 81 % 0.00 in
14:12 46.7 °F 41.2 °F 30.26 in North 5.0 mph 9.0 mph 81 % 0.00 in
14:17 46.8 °F 41.3 °F 30.26 in NNE 3.5 mph 4.6 mph 81 % 0.00 in
14:22 46.8 °F 41.0 °F 30.27 in North 4.7 mph 8.1 mph 80 % 0.00 in
14:27 46.8 °F 41.3 °F 30.26 in ENE 3.1 mph 3.5 mph 81 % 0.00 in
14:32 46.8 °F 41.3 °F 30.26 in NE 1.6 mph 4.6 mph 81 % 0.00 in
14:37 46.8 °F 41.3 °F 30.26 in NE 2.0 mph 4.6 mph 81 % 0.00 in
14:42 46.8 °F 41.0 °F 30.26 in NNW 1.8 mph 8.1 mph 80 % 0.00 in
14:48 46.8 °F 41.0 °F 30.26 in NNE 3.6 mph 8.1 mph 80 % 0.00 in
14:53 46.8 °F 41.0 °F 30.26 in NNE 2.0 mph 3.5 mph 80 % 0.00 in
14:58 46.8 °F 41.0 °F 30.26 in North 1.6 mph 3.5 mph 80 % 0.00 in
15:03 46.8 °F 41.0 °F 30.26 in NE 2.5 mph 5.8 mph 80 % 0.00 in
15:08 46.9 °F 41.1 °F 30.26 in North 4.0 mph 8.1 mph 80 % 0.00 in
15:13 46.9 °F 40.7 °F 30.26 in NNE 4.2 mph 8.1 mph 79 % 0.00 in
15:18 46.9 °F 40.7 °F 30.26 in North 6.1 mph 9.2 mph 79 % 0.00 in
15:23 46.9 °F 40.4 °F 30.25 in NNE 4.9 mph 7.0 mph 78 % 0.00 in
15:28 46.9 °F 40.4 °F 30.25 in NNE 4.7 mph 9.2 mph 78 % 0.00 in
15:33 46.9 °F 40.4 °F 30.25 in NNE 5.0 mph 9.2 mph 78 % 0.00 in
15:38 46.9 °F 40.4 °F 30.26 in North 4.8 mph 9.2 mph 78 % 0.00 in
15:43 46.9 °F 40.7 °F 30.25 in North 2.4 mph 4.0 mph 79 % 0.00 in
15:48 46.9 °F 40.7 °F 30.25 in North 4.9 mph 8.0 mph 79 % 0.00 in
15:53 46.8 °F 40.6 °F 30.25 in NE 5.8 mph 8.1 mph 79 % 0.00 in
15:58 46.7 °F 40.9 °F 30.25 in NNE 1.8 mph 4.6 mph 80 % 0.00 in
16:03 46.7 °F 40.9 °F 30.25 in NNE 5.4 mph 8.1 mph 80 % 0.00 in
16:08 46.6 °F 41.1 °F 30.25 in NNE 2.2 mph 5.0 mph 81 % 0.00 in
16:13 46.5 °F 41.0 °F 30.25 in NNE 4.4 mph 8.0 mph 81 % 0.00 in
16:16 46.5 °F 41.0 °F 30.25 in NNE 2.7 mph 5.8 mph 81 % 0.00 in
16:21 46.4 °F 40.6 °F 30.25 in NE 3.7 mph 5.8 mph 80 % 0.00 in
16:26 46.4 °F 40.6 °F 30.25 in NE 2.5 mph 4.6 mph 80 % 0.00 in
16:31 46.3 °F 40.5 °F 30.24 in NNE 5.7 mph 10.4 mph 80 % 0.00 in
16:36 46.3 °F 40.5 °F 30.25 in NNE 8.1 mph 12.7 mph 80 % 0.00 in
16:41 46.2 °F 40.4 °F 30.25 in NNE 0.7 mph 3.5 mph 80 % 0.00 in
16:46 46.1 °F 40.6 °F 30.25 in NE 2.3 mph 4.6 mph 81 % 0.00 in
16:51 45.9 °F 40.1 °F 30.25 in NNE 3.1 mph 10.4 mph 80 % 0.00 in
16:56 45.7 °F 39.9 °F 30.25 in NNE 6.0 mph 7.0 mph 80 % 0.00 in
17:02 45.5 °F 40.0 °F 30.25 in North 5.7 mph 7.0 mph 81 % 0.00 in
17:07 45.4 °F 39.9 °F 30.25 in North 2.4 mph 6.0 mph 81 % 0.00 in
17:12 45.3 °F 40.1 °F 30.26 in NNE 5.3 mph 8.1 mph 82 % 0.00 in
17:17 45.2 °F 40.3 °F 30.26 in NNE 4.0 mph 8.1 mph 83 % 0.00 in
17:22 45.1 °F 40.6 °F 30.26 in North 5.5 mph 9.2 mph 84 % 0.00 in
17:27 45.1 °F 40.6 °F 30.26 in NNE 4.3 mph 9.2 mph 84 % 0.00 in
17:32 45.0 °F 40.1 °F 30.26 in NNE 4.8 mph 9.2 mph 83 % 0.00 in
17:37 44.9 °F 40.0 °F 30.26 in North 4.7 mph 9.2 mph 83 % 0.00 in
17:42 44.9 °F 40.0 °F 30.26 in NNE 6.3 mph 10.4 mph 83 % 0.00 in
17:47 44.8 °F 40.0 °F 30.26 in NNE 8.0 mph 11.5 mph 83 % 0.00 in
17:52 44.7 °F 39.9 °F 30.27 in NNE 4.3 mph 5.8 mph 83 % 0.00 in
17:57 44.6 °F 39.8 °F 30.27 in NNE 3.6 mph 4.6 mph 83 % 0.00 in
18:03 44.5 °F 39.7 °F 30.27 in NE 6.0 mph 11.5 mph 83 % 0.00 in
18:08 44.4 °F 39.6 °F 30.27 in NNE 5.3 mph 9.2 mph 83 % 0.00 in
18:13 44.3 °F 39.5 °F 30.27 in NNW 5.5 mph 9.2 mph 83 % 0.00 in
18:18 44.2 °F 39.4 °F 30.27 in NE 6.2 mph 10.4 mph 83 % 0.00 in
18:23 44.1 °F 39.3 °F 30.28 in NNE 3.5 mph 5.8 mph 83 % 0.00 in
18:28 44.0 °F 39.2 °F 30.27 in North 7.8 mph 13.8 mph 83 % 0.00 in
18:33 43.9 °F 39.1 °F 30.27 in North 6.5 mph 9.2 mph 83 % 0.00 in
18:38 43.9 °F 39.1 °F 30.27 in ENE 6.7 mph 11.5 mph 83 % 0.00 in
18:43 43.8 °F 38.7 °F 30.28 in North 7.5 mph 11.5 mph 82 % 0.00 in
18:48 43.8 °F 38.7 °F 30.28 in NNE 6.1 mph 13.8 mph 82 % 0.00 in
18:53 43.7 °F 38.6 °F 30.27 in ENE 4.9 mph 9.2 mph 82 % 0.00 in
18:58 43.7 °F 38.6 °F 30.28 in North 6.6 mph 10.0 mph 82 % 0.00 in
19:03 43.7 °F 38.6 °F 30.28 in NNE 8.3 mph 12.0 mph 82 % 0.00 in
19:08 43.6 °F 38.5 °F 30.28 in NNE 3.8 mph 6.9 mph 82 % 0.00 in
19:13 43.6 °F 38.5 °F 30.28 in NNE 5.3 mph 9.2 mph 82 % 0.00 in
19:18 43.6 °F 38.8 °F 30.28 in NE 5.0 mph 9.2 mph 83 % 0.00 in
19:23 43.6 °F 38.5 °F 30.28 in NE 7.4 mph 12.0 mph 82 % 0.00 in
19:28 43.5 °F 38.4 °F 30.28 in NNE 7.7 mph 11.5 mph 82 % 0.00 in
19:33 43.4 °F 38.3 °F 30.30 in NNE 4.6 mph 5.8 mph 82 % 0.00 in
19:36 43.4 °F 38.6 °F 30.30 in NE 7.4 mph 8.1 mph 83 % 0.00 in
19:41 43.4 °F 38.3 °F 30.30 in North 4.9 mph 11.5 mph 82 % 0.00 in
19:46 43.3 °F 38.5 °F 30.29 in NNE 7.6 mph 11.5 mph 83 % 0.00 in
19:51 43.3 °F 38.5 °F 30.29 in North 6.0 mph 10.4 mph 83 % 0.00 in
19:56 43.2 °F 38.7 °F 30.29 in NNE 6.3 mph 10.4 mph 84 % 0.00 in
20:02 43.2 °F 39.0 °F 30.29 in NNE 5.1 mph 6.9 mph 85 % 0.00 in
20:07 43.1 °F 38.9 °F 30.30 in North 5.8 mph 11.0 mph 85 % 0.00 in
20:12 43.0 °F 38.5 °F 30.29 in NE 3.2 mph 6.9 mph 84 % 0.00 in
20:17 42.9 °F 38.7 °F 30.29 in NNE 5.2 mph 10.4 mph 85 % 0.00 in
20:22 42.8 °F 38.6 °F 30.29 in NNE 4.4 mph 7.0 mph 85 % 0.00 in
20:27 42.7 °F 38.5 °F 30.29 in North 5.8 mph 9.2 mph 85 % 0.00 in
20:32 42.6 °F 38.4 °F 30.29 in NNW 6.5 mph 11.5 mph 85 % 0.00 in
20:37 42.5 °F 38.3 °F 30.28 in NNW 2.4 mph 5.8 mph 85 % 0.00 in
20:42 42.5 °F 38.6 °F 30.30 in NNE 4.2 mph 10.4 mph 86 % 0.00 in
20:47 42.5 °F 38.3 °F 30.29 in NNE 5.1 mph 10.4 mph 85 % 0.00 in
20:52 42.4 °F 38.5 °F 30.28 in NNE 3.3 mph 8.1 mph 86 % 0.00 in
20:57 42.4 °F 38.2 °F 30.28 in NNE 5.7 mph 9.0 mph 85 % 0.00 in
21:02 42.5 °F 38.0 °F 30.28 in NNE 10.0 mph 13.8 mph 84 % 0.00 in
21:07 42.5 °F 38.0 °F 30.30 in NNE 8.3 mph 11.5 mph 84 % 0.00 in
21:12 42.5 °F 38.0 °F 30.30 in NNE 5.9 mph 9.2 mph 84 % 0.00 in
21:17 42.6 °F 38.4 °F 30.30 in North 6.1 mph 9.2 mph 85 % 0.00 in
21:22 42.6 °F 38.4 °F 30.28 in NNE 6.5 mph 11.5 mph 85 % 0.00 in
21:27 42.5 °F 38.0 °F 30.28 in NNE 5.7 mph 9.2 mph 84 % 0.00 in
21:32 42.5 °F 38.3 °F 30.28 in North 10.4 mph 12.7 mph 85 % 0.00 in
21:37 42.4 °F 37.9 °F 30.29 in North 5.1 mph 10.4 mph 84 % 0.00 in
21:42 42.3 °F 37.8 °F 30.28 in North 7.6 mph 14.0 mph 84 % 0.00 in
21:47 42.2 °F 38.0 °F 30.28 in NE 7.1 mph 11.5 mph 85 % 0.00 in
21:52 42.2 °F 38.0 °F 30.28 in NNE 6.1 mph 10.4 mph 85 % 0.00 in
21:58 42.1 °F 37.9 °F 30.31 in North 7.0 mph 11.5 mph 85 % 0.00 in
22:02 42.1 °F 37.6 °F 30.28 in NNE 7.9 mph 14.0 mph 84 % 0.00 in
22:08 42.0 °F 37.5 °F 30.28 in NNE 5.2 mph 11.5 mph 84 % 0.00 in
22:15 41.9 °F 37.1 °F 30.28 in NNE 6.9 mph 12.7 mph 83 % 0.00 in
22:20 41.9 °F 37.4 °F 30.28 in NNE 6.2 mph 12.7 mph 84 % 0.00 in
22:22 41.9 °F 37.4 °F 30.28 in NNE 6.1 mph 11.5 mph 84 % 0.00 in
22:27 41.9 °F 37.4 °F 30.28 in NNE 7.8 mph 12.7 mph 84 % 0.00 in
22:32 41.9 °F 37.7 °F 30.28 in NE 5.9 mph 10.4 mph 85 % 0.00 in
22:37 41.8 °F 37.6 °F 30.28 in NNE 4.9 mph 10.0 mph 85 % 0.00 in
22:42 41.8 °F 37.9 °F 30.28 in NNE 5.0 mph 8.1 mph 86 % 0.00 in
22:47 41.8 °F 37.9 °F 30.27 in North 4.4 mph 10.4 mph 86 % 0.00 in
22:52 41.7 °F 37.5 °F 30.27 in North 4.8 mph 10.4 mph 85 % 0.00 in
22:57 41.6 °F 37.4 °F 30.27 in North 5.3 mph 7.0 mph 85 % 0.00 in
23:02 41.6 °F 37.4 °F 30.27 in NE 4.2 mph 5.8 mph 85 % 0.00 in
23:07 41.5 °F 37.3 °F 30.27 in NE 6.8 mph 9.2 mph 85 % 0.00 in
23:12 41.4 °F 37.2 °F 30.27 in North 4.4 mph 9.2 mph 85 % 0.00 in
23:17 41.3 °F 37.1 °F 30.27 in NNE 6.3 mph 8.1 mph 85 % 0.00 in
23:22 41.3 °F 37.1 °F 30.27 in NE 7.0 mph 10.4 mph 85 % 0.00 in
23:27 41.3 °F 37.1 °F 30.26 in North 6.4 mph 10.4 mph 85 % 0.00 in
23:32 41.3 °F 37.1 °F 30.26 in North 6.4 mph 9.2 mph 85 % 0.00 in
23:37 41.3 °F 37.1 °F 30.26 in WNW 5.4 mph 8.1 mph 85 % 0.00 in
23:42 41.2 °F 37.3 °F 30.27 in NNE 7.7 mph 11.5 mph 86 % 0.00 in
23:47 41.1 °F 37.2 °F 30.27 in North 4.4 mph 8.1 mph 86 % 0.00 in
23:52 41.1 °F 37.2 °F 30.27 in North 6.1 mph 9.2 mph 86 % 0.00 in
23:57 41.1 °F 37.5 °F 30.27 in North 4.4 mph 8.0 mph 87 % 0.00 in
Crab Meadow Weather
Compliments of Weather Underground - 3 mb

Script developed by  Jim McMurry - jmcmurry@mwt.net Adapted for the template by  Wim van der Kuil - Leuven-Template.eu

Astronomy: One day on Uranus is 18 hours